Weather History for Wausau, WI

Change the Weather History Date:

Tuesday, February 5, 2013

  Actual Average Record
Temperature  
Mean Temperature 13 °F 16 °F  
Max Temperature 22 °F 25 °F 52 °F (1991)
Min Temperature 4 °F 7 °F -31 °F (1899)
Degree Days  
Heating Degree Days 52 49  
Month to date heating degree days 295 245  
Since 1 July heating degree days 4791 5095  
Cooling Degree Days 0 0  
Month to date cooling degree days 0 0  
Year to date cooling degree days 0 0  
Moisture  
Dew Point 8 °F    
Average Humidity 77    
Maximum Humidity 92    
Minimum Humidity 62    
Precipitation  
Precipitation 0.04 in 0.03 in 0.51 in (1971)
Month to date precipitation 0.04 0.15  
Year to date precipitation 1.72 1.17  
Snow  
Snow 0.70 in 0.40 in 13.00 in (1908)
Month to date snowfall 0.9 1.9  
Since 1 July snowfall 41.4 37.6  
Snow Depth 9.00 in    
Sea Level Pressure  
Sea Level Pressure 29.81 in    
Wind  
Wind Speed 5 mph (WSW)    
Max Wind Speed 16 mph    
Max Gust Speed 21 mph    
Visibility 6 miles    
Events Snow    
T = Trace of Precipitation, MM = Missing Value Source: NWS Daily Summary

Daily Weather History Graph

Daily Weather History Graph

Search for Another Location

Airport:

Trip Planner

Search our weather history database for the weather conditions in past years. The results will help you decide how hot, cold, wet, or windy it might be!

Date:

Astronomy

Feb. 05, 2013 Rise Set
Actual Time 7:12 AM CST 5:12 PM CST
Civil Twilight 6:42 AM CST 5:43 PM CST
Nautical Twilight 6:07 AM CST 6:18 PM CST
Astronomical Twilight 5:33 AM CST 6:52 PM CST
Moon 2:59 AM CST (2/5) 12:25 PM CST (2/5)
Length of Visible Light 11h 01m
Length of Day
9h 59m
Waning Crescent, 26% of the Moon is Illuminated
Feb 5
Waning Crescent
Feb 10
New
Feb 17
First Quarter
Feb 25
Full
Mar 4
Last Quarter

Hourly Weather History & Observations

Time (CST) Temp. Windchill Dew Point Humidity Pressure Visibility Wind Dir Wind Speed Gust Speed Precip Events Conditions
12:54 AM 6.1 °F - -4.0 °F 63% 29.88 in 10.0 mi Calm Calm - N/A   Overcast
1:54 AM 7.0 °F - -4.0 °F 61% 29.87 in 10.0 mi Calm Calm - N/A   Overcast
2:54 AM 8.1 °F - -2.9 °F 61% 29.83 in 9.0 mi Calm Calm - N/A   Overcast
3:06 AM 8.6 °F 2.0 °F -0.4 °F 67% 29.73 in 3.0 mi SE 3.5 mph - 0.00 in Snow Light Snow
3:23 AM 8.6 °F 0.1 °F 1.4 °F 73% 29.72 in 2.0 mi South 4.6 mph - 0.00 in Snow Light Snow
3:30 AM 8.6 °F -1.3 °F 3.2 °F 79% 29.72 in 1.2 mi South 5.8 mph - 0.00 in Snow Light Snow
3:46 AM 10.4 °F -1.5 °F 6.8 °F 85% 29.71 in 1.0 mi South 8.1 mph - 0.00 in Snow Light Snow
3:54 AM 10.0 °F -2.9 °F 6.1 °F 84% 29.79 in 1.0 mi South 9.2 mph - 0.00 in Snow Light Snow
4:15 AM 10.4 °F -1.5 °F 6.8 °F 85% 29.69 in 2.5 mi South 8.1 mph - 0.00 in Snow Light Snow
4:23 AM 10.4 °F -4.1 °F 6.8 °F 85% 29.68 in 6.0 mi South 11.5 mph - 0.01 in   Overcast
4:45 AM 10.4 °F -3.3 °F 6.8 °F 85% 29.66 in 8.0 mi South 10.4 mph - 0.01 in   Overcast
4:54 AM 10.9 °F -1.8 °F 7.0 °F 84% 29.75 in 4.0 mi South 9.2 mph - 0.01 in Snow Light Snow
5:50 AM 12.2 °F 1.7 °F 8.6 °F 85% 29.66 in 6.0 mi SSW 6.9 mph - 0.00 in   Overcast
5:54 AM 12.0 °F 2.7 °F 9.0 °F 88% 29.74 in 6.0 mi SSW 5.8 mph - 0.00 in   Overcast
6:54 AM 12.9 °F 3.8 °F 9.0 °F 84% 29.73 in 8.0 mi SSW 5.8 mph - N/A   Overcast
7:39 AM 12.2 °F 1.7 °F 8.6 °F 85% 29.63 in 1.8 mi SSW 6.9 mph - 0.00 in Snow Light Snow
7:59 AM 12.2 °F 4.3 °F 8.6 °F 85% 29.65 in 3.0 mi SW 4.6 mph - 0.00 in Snow Light Snow
8:25 AM 14.0 °F 8.2 °F 10.4 °F 86% 29.65 in 9.0 mi SSW 3.5 mph - 0.00 in   Overcast
8:54 AM 14.0 °F 5.1 °F 10.0 °F 84% 29.74 in 7.0 mi SW 5.8 mph - 0.00 in   Overcast
9:54 AM 16.0 °F 7.4 °F 12.0 °F 84% 29.75 in 4.0 mi SW 5.8 mph - N/A   Overcast
10:21 AM 17.6 °F - 14.0 °F 86% 29.67 in 4.0 mi Calm Calm - N/A   Overcast
10:54 AM 18.0 °F 8.7 °F 15.1 °F 88% 29.77 in 2.5 mi West 6.9 mph - N/A   Overcast
11:12 AM 19.4 °F 12.8 °F 15.8 °F 86% 29.68 in 3.0 mi West 4.6 mph - N/A   Overcast
11:54 AM 21.0 °F 9.9 °F 16.0 °F 81% 29.78 in 6.0 mi WNW 10.4 mph - 0.00 in   Overcast
12:02 PM 21.2 °F 8.9 °F 15.8 °F 80% 29.70 in 7.0 mi WNW 12.7 mph - 0.00 in   Overcast
12:54 PM 21.0 °F 11.4 °F 16.0 °F 81% 29.80 in 8.0 mi NW 8.1 mph - 0.00 in   Overcast
1:54 PM 21.0 °F 9.9 °F 15.1 °F 78% 29.83 in 7.0 mi NW 10.4 mph - 0.00 in   Overcast
2:03 PM 21.2 °F 10.1 °F 15.8 °F 80% 29.75 in 6.0 mi NW 10.4 mph - 0.00 in   Overcast
2:54 PM 21.9 °F 11.0 °F 12.9 °F 68% 29.86 in 10.0 mi NNW 10.4 mph - 0.00 in   Overcast
3:54 PM 21.0 °F 9.3 °F 10.9 °F 65% 29.90 in 10.0 mi NW 11.5 mph - 0.00 in   Overcast
4:54 PM 19.9 °F 10.1 °F 10.0 °F 65% 29.94 in 10.0 mi NW 8.1 mph - 0.00 in   Overcast
5:54 PM 19.9 °F 13.4 °F 10.0 °F 65% 29.96 in 10.0 mi NW 4.6 mph - N/A   Overcast
6:54 PM 18.0 °F 11.1 °F 10.0 °F 71% 30.01 in 10.0 mi WNW 4.6 mph - N/A   Overcast
7:54 PM 16.0 °F 8.8 °F 9.0 °F 74% 30.04 in 10.0 mi WNW 4.6 mph - N/A   Mostly Cloudy
8:26 PM 15.8 °F 8.6 °F 8.6 °F 73% 29.97 in 10.0 mi WNW 4.6 mph - N/A   Scattered Clouds
8:54 PM 14.0 °F - 7.0 °F 74% 30.06 in 10.0 mi Calm Calm - N/A   Clear
9:54 PM 10.9 °F 4.7 °F 7.0 °F 84% 30.09 in 10.0 mi NW 3.5 mph - N/A   Clear
10:54 PM 8.1 °F - 3.9 °F 83% 30.10 in 6.0 mi Calm Calm - N/A   Clear
11:54 PM 3.9 °F - 1.0 °F 88% 30.12 in 6.0 mi Calm Calm - N/A   Clear